DELTA 1 DEB, 19834

Orbit data source: Space-Track

DELTA 1 DEB, 19834 is space debris in SSO originally from a launch on Sun, 23 Jul 1972 UTC launched from the Air Force Western Test Range (AFWTR). Debris objects in space refer to the collection of defunct objects orbiting the Earth. Examples of debris include non-operational satellites, rocket bodies, and fragments generated from explosions, collisions, or faulty payload assembly.

Loading next visibility...
Identifier
19834, 1972-058JM
Orbit
SSO
Country
Flag of USUS
Related business
Manufacturer
Unknown
Mission
Spacecraft
Bus & Motor
Unknown
Mass
Unknown
Launch date (UTC)
1972-07-23 (54 years ago)
Launch vehicle
Unknown
Launch site
Air Force Western Test Range (AFWTR)
Object type
Payload
Rocket body
Debris
Shape & HBR
Unknown shape, 0.1 m
Radar Cross Section
Small (<0.1 m²)

Expand to show TLE details & history
Last TLE update: 15 hours ago

TLE from 15 hours ago
0 DELTA 1 DEB
1 19834U 72058JM  26061.85114094  .00000960  00000-0  17708-3 0  9995
2 19834  98.5869 203.4950 0127120  20.3648 340.2557 14.63016607924488
Epoch: 2026-03-02T20:25Z
TLE epoch observation values (Epoch: 2026-03-02T20:25:38.577Z)
Latitude
0.00001°
Longitude
96.44564°
Altitude
602.053 km
Speed
7.604 km/s
True Right ascension
13h 33m 58s
True Declination
0° 00' 00"
Sunlit
Object was in full shadow at epoch
Visualization orbit readout
Latitude
Unknown
Longitude
Unknown
Altitude
Unknown
Speed
Unknown
Apparent Right ascension
Unknown
Apparent Declination
Unknown
Sunlit
N/A
Visualization observer readout
Local Sidereal Time
15:20:22
Azimuth
Unknown
Elevation
Unknown
Doppler factor
Unknown
Orbital elements
Apogee altitude
770.275 km
Perigee altitude
590.815 km
Semi-major axis
7,058.682 km
Eccentricity
0.01271
Inclination
98.5869°
RAAN
203.495°
Arg. of periapsis
20.3648°
True anomaly
339.75614°
Mean anomaly
340.2557°
Eccentric anomaly
340.00667°
Mean motion
3.6598 °/min
Orbital period
98.37 mins
BSTAR
0.00017708
Loading maneuver chart data...
Computing Atmospheric mass density...

Documentation

Showing up to 5 results
|